EDT,Max TemperatureF,Mean TemperatureF,Min TemperatureF,Max Dew PointF,MeanDew PointF,Min DewpointF,Max Humidity, Mean Humidity, Min Humidity, Max Sea Level PressureIn, Mean Sea Level PressureIn, Min Sea Level PressureIn, Max VisibilityMiles, Mean VisibilityMiles, Min VisibilityMiles, Max Wind SpeedMPH, Mean Wind SpeedMPH, Max Gust SpeedMPH,PrecipitationIn, CloudCover, Events, WindDirDegrees
2013-10-1,71,65,59,61,60,54,100,89,69,30.05,30.01,29.98,10,6,1,9,3,9,0.00,4,,215
2013-10-2,78,70,62,64,63,61,100,82,61,30.12,30.06,30.01,10,7,0,8,3,,0.00,4,Fog,229
2013-10-3,77,68,60,68,64,61,100,89,65,30.05,30.01,29.94,10,6,0,17,2,23,0.47,5,Fog-Rain,218
2013-10-4,78,71,64,70,66,63,100,87,69,30.03,30.01,29.97,10,9,1,8,3,20,0.66,3,Rain,194
2013-10-5,73,68,64,70,66,63,100,94,78,30.03,29.96,29.88,10,7,2,14,2,20,0.22,4,Rain,168
2013-10-6,68,57,46,66,54,37,100,86,62,29.88,29.78,29.72,10,9,2,17,6,26,0.24,8,Rain,231
2013-10-7,59,50,42,46,42,37,100,79,55,30.14,29.93,29.79,10,10,10,21,7,25,0.00,3,,261
2013-10-8,69,56,42,50,45,41,100,73,43,30.26,30.21,30.14,10,10,7,8,2,,0.00,0,,159
2013-10-9,69,54,39,48,43,39,100,69,38,30.30,30.24,30.19,10,10,2,12,2,16,0.00,0,,101
2013-10-10,71,56,42,52,45,41,100,71,38,30.21,30.17,30.11,10,10,5,7,2,,0.00,0,,116
2013-10-11,73,57,41,52,46,41,100,69,33,30.15,30.09,30.04,10,8,0,7,2,,0.00,0,Fog,127
2013-10-12,77,62,46,61,52,46,100,76,39,30.14,30.07,30.03,10,8,2,9,2,,0.00,2,,209
2013-10-13,66,55,44,61,45,37,100,69,39,30.39,30.30,30.15,10,10,5,12,5,16,0.00,1,,327
2013-10-14,64,50,37,46,42,37,100,76,48,30.40,30.33,30.23,10,10,4,13,3,18,0.00,0,,94
2013-10-15,64,54,44,61,52,41,100,89,82,30.24,30.02,29.87,10,8,3,10,5,17,0.00,4,Rain,150
2013-10-16,62,53,44,61,45,41,94,81,71,29.97,29.92,29.87,10,10,10,16,9,22,0.00,6,,249
2013-10-17,50,46,41,46,44,39,100,87,76,29.95,29.90,29.83,10,10,5,15,5,21,0.00,7,Rain,245
2013-10-18,60,50,41,45,40,36,100,77,48,29.98,29.93,29.90,10,10,7,18,5,23,0.00,2,,241
2013-10-19,51,46,41,41,37,32,100,76,47,29.95,29.88,29.82,10,10,4,18,6,24,0.00,6,Rain,250
2013-10-20,62,52,41,41,38,34,81,63,45,29.94,29.88,29.84,10,10,10,12,6,22,0.00,4,Rain,218
2013-10-21,55,45,35,45,39,28,82,71,58,29.96,29.90,29.86,10,10,10,16,9,23,0.00,5,Rain,246
2013-10-22,46,39,32,34,28,21,93,75,39,30.00,29.96,29.91,10,10,7,15,7,20,0.00,3,Rain,255
2013-10-23,42,38,33,36,33,28,100,87,57,30.01,29.93,29.85,10,7,0,17,4,21,0.00,8,Fog-Rain,294
2013-10-24,42,35,28,32,30,27,100,81,61,30.26,30.10,30.00,10,10,10,15,5,22,0.00,6,Rain,278
2013-10-25,46,37,28,32,28,25,100,70,46,30.39,30.30,30.17,10,10,10,16,5,21,0.00,3,,248
2013-10-26,53,44,35,36,31,27,87,62,50,30.16,29.98,29.85,10,10,10,21,12,28,0.00,6,Rain,253
2013-10-27,53,40,28,34,31,28,100,70,41,30.10,30.05,30.02,10,10,7,14,3,17,0.00,1,,242
2013-10-28,55,42,28,36,32,27,93,75,44,30.35,30.22,30.07,10,9,4,7,1,,0.00,0,,41
2013-10-29,53,42,32,39,36,30,100,78,54,30.39,30.32,30.21,10,10,5,9,5,,0.00,1,,107
2013-10-30,60,48,37,61,46,36,100,86,71,30.21,30.10,29.92,10,7,2,8,3,,0.00,6,Rain,129
2013-10-31,62,58,51,61,58,52,100,95,88,29.90,29.58,29.26,10,6,2,23,9,31,0.00,8,Rain,208